Regional Weather Roundup
Issued by NWS

Home | Current Version | Previous Version | Text Only | Print | Product List | Glossary Off
Versions: 1 2 3 4 5 6 7 8 9 10 11 12 13 14 15 16 17 18 19 20 21 22 23 24 25 26 27 28 29 30 31 32 33 34 35 36 37 38 39 40 41 42 43 44 45 46 47 48 49

545
ASUS45 KCYS 061910
RWRWY

WYOMING REGIONAL WEATHER ROUNDUP
NATIONAL WEATHER SERVICE CHEYENNE WY
1200 PM MST SAT FEB 06 2016

NOTE:  "FAIR" INDICATES FEW OR NO CLOUDS BELOW 12,000 FEET
WITH NO SIGNIFICANT WEATHER AND/OR OBSTRUCTIONS TO VISIBILITY.

WYZ001-062000-
YELLOWSTONE NATIONAL PARK

CITY           SKY/WX    TMP DP  RH WIND       PRES   REMARKS
LK YELLOWSTONE   N/A     24  17  74 SW8       30.24F WCI  15
W YELLOWSTONE  NOT AVBL

$$
WYZ002>013-054>058-071-098>099-062000-
NORTHERN WYOMING

CITY           SKY/WX    TMP DP  RH WIND       PRES   REMARKS
JACKSON        MOSUNNY   30  23  74 S23G32    30.30F WCI  17
CODY           FAIR      50  14  23 NW15G28   30.03R
GREYBULL       FAIR      35  19  52 SW9       30.08F WCI  28
WORLAND        FAIR      36  23  59 W6        30.06F WCI  31
SHERIDAN       PTSUNNY   52  16  24 NW12      29.88F
BUFFALO        FAIR      52  17  25 CALM      29.91F
GILLETTE       FAIR      40  23  50 SW29G36   29.89F WCI  29
HULETT         FAIR      41  23  48 SW14G28   29.93S
NEWCASTLE      FAIR      36  21  55 SE8       30.02F WCI  29

$$
WYZ014>020-022>026-101>103-062000-
CENTRAL WYOMING

CITY           SKY/WX    TMP DP  RH WIND       PRES   REMARKS
BIG PINEY      FAIR      26  16  65 SW5       30.35F WCI  20
PINEDALE       FAIR      32  18  55 W5        30.34F WCI  27
DUBOIS         FAIR      36  16  44 N24G39    30.13F WCI  24
LANDER         FAIR      34  18  52 E6        30.14F WCI  29
RIVERTON       FAIR      33  17  51 S9        30.13F WCI  25
CASPER         FAIR      29  21  72 SW35G44   30.13F WCI  12
DOUGLAS        FAIR      41  22  46 W22G30      N/A

$$
WYZ021-027>030-104>119-062000-
SOUTHERN WYOMING

CITY           SKY/WX    TMP DP  RH WIND       PRES   REMARKS
EVANSTON       FAIR      24  16  71 SW17      30.43F WCI  11
FORT BRIDGER   CLEAR     34  19  55 SW14      30.44S WCI  24
ROCK SPRINGS   FAIR      27  17  66 SW13      30.37F WCI  16
DIXON          FAIR      22  11  62 CALM      30.47S
RAWLINS        FAIR      27  16  63 SW13G25   30.31F WCI  16
SARATOGA       FAIR      32  19  59 SW16      30.32F WCI  21
LARAMIE        FAIR      33  19  56 SW12      30.20F WCI  24
CHEYENNE       FAIR      38  19  46 W24G38    30.12F WCI  27
TORRINGTON     FAIR      40  22  48 W18G33    30.09F WCI  31
PINE BLUFFS    FAIR      41  23  48 W12       30.14F

$$




USA.gov is the U.S. government's official web portal to all federal, state and local government web resources and services.